Regional Weather Roundup
Issued by NWS

Home | Current Version | Previous Version | Text Only | Print | Product List | Glossary On
Versions: 1 2 3 4 5 6 7 8 9 10 11 12 13 14 15 16 17 18 19 20 21 22 23 24 25 26 27 28 29 30 31 32 33 34 35 36 37 38 39 40 41 42 43 44 45 46 47 48 49 50
000
ASUS45 KREV 270810
RWRNV
NEVADA REGIONAL WEATHER ROUNDUP
NATIONAL WEATHER SERVICE RENO NV
100 AM PDT SAT AUG 27 2016

NOTE: "FAIR" INDICATES FEW OR NO CLOUDS BELOW 12,000 FEET WITH NO
SIGNIFICANT WEATHER AND/OR OBSTRUCTIONS TO VISIBILITY.

NVZ001-003-004-270900-
WESTERN NEVADA

CITY           SKY/WX    TMP DP  RH WIND       PRES   REMARKS
RENO           CLEAR     66  32  28 CALM      30.07R
CARSON CITY    FAIR      63  32  31 CALM      30.10S
MINDEN         FAIR      50  32  50 SE7       30.10S
PYRAMID LAKE     N/A     73 N/A N/A SW3         N/A
FALLON         CLEAR     61  33  35 S7        30.00R
LOVELOCK       CLEAR     63  21  20 E6        29.98R
$$

NVZ002-CAZ072-073-270900-
NORTHERN AND CENTRAL SIERRA

CITY           SKY/WX    TMP DP  RH WIND       PRES   REMARKS
S. LAKE TAHOE  CLEAR     47  35  63 S3        30.20R
TRUCKEE        CLEAR     41  32  70 CALM      30.20S
SQUAW VLY 8000 NOT AVBL
MAMMOTH LAKES  FAIR      51  33  50 CALM      30.24S
BRIDGEPORT       N/A     50  24  36 CALM      30.21S
$$

NVZ030-031-036-270900-
NORTHERN NEVADA

CITY           SKY/WX    TMP DP  RH WIND       PRES   REMARKS
ELKO           CLEAR     55  23  28 NE6       30.07R
WINNEMUCCA     CLEAR     50  20  30 S6        30.01S
WENDOVER       CLEAR     70  30  23 CALM      30.03S
$$

NVZ035-037-270900-
CENTRAL NEVADA

CITY           SKY/WX    TMP DP  RH WIND       PRES   REMARKS
ELY            CLEAR     57  34  41 S8        30.17R
EUREKA           N/A     48  19  31 S9        30.13S
$$

NVZ013-014-270900-
SOUTH CENTRAL NEVADA

CITY           SKY/WX    TMP DP  RH WIND       PRES   REMARKS
TONOPAH        CLOUDY    76  24  14 N8        30.08F
$$

NVZ017-020-022-270900-
SOUTHERN NEVADA

CITY           SKY/WX    TMP DP  RH WIND       PRES   REMARKS
LAS VEGAS      CLOUDY    78  51  38 SW12      29.90S
N. LAS VEGAS   MOCLDY    79  54  41 SW10      29.91S
NELLIS AFB     CLOUDY    81  53  37 SW9       29.90S
HENDERSON      CLOUDY    77  52  41 SW13      29.95S
MERCURY        CLEAR     78  46  32 S9        29.95R
$$



USA.gov is the U.S. government's official web portal to all federal, state and local government web resources and services.